TimeEST,TemperatureF,Dew PointF,Humidity,Sea Level PressureIn,VisibilityMPH,Wind Direction,Wind SpeedMPH,Gust SpeedMPH,PrecipitationIn,Events,Conditions,WindDirDegrees,DateUTC
12:04 AM,17.6,12.2,79,29.93,1.8,NW,17.3,24.2,0.00,Snow,Light Snow,310,2013-02-01 05:04:00
12:30 AM,17.6,10.4,73,29.94,3.0,NW,12.7,24.2,0.00,Snow,Light Snow,310,2013-02-01 05:30:00
12:45 AM,17.6,10.4,73,29.95,1.8,NW,17.3,26.5,0.00,Snow,Light Snow,320,2013-02-01 05:45:00
12:55 AM,18.0,10.9,74,29.99,2.0,WNW,16.1,24.2,0.00,Snow,Light Snow,300,2013-02-01 05:55:00
1:08 AM,17.6,10.4,73,29.96,1.5,NW,12.7,25.3,0.00,Snow,Light Snow,310,2013-02-01 06:08:00
1:29 AM,17.6,10.4,73,29.96,2.0,NW,17.3,25.3,0.00,Snow,Light Snow,310,2013-02-01 06:29:00
1:46 AM,17.6,10.4,73,29.97,1.2,NW,17.3,25.3,0.00,Snow,Light Snow,310,2013-02-01 06:46:00
1:55 AM,17.1,8.1,68,30.01,1.5,NW,15.0,23.0,0.00,Snow,Light Snow,310,2013-02-01 06:55:00
1:59 AM,17.6,8.6,68,29.98,3.0,NW,12.7,23.0,0.00,Snow,Light Snow,310,2013-02-01 06:59:00
2:23 AM,17.6,6.8,63,29.99,5.0,NW,15.0,23.0,0.00,Snow,Light Snow,310,2013-02-01 07:23:00
2:45 AM,17.6,8.6,68,30.00,2.5,WNW,11.5,23.0,0.00,Snow,Light Snow,300,2013-02-01 07:45:00
2:55 AM,17.1,9.0,71,30.05,2.0,NW,15.0,21.9,0.00,Snow,Light Snow,310,2013-02-01 07:55:00
3:11 AM,17.6,8.6,68,30.01,5.0,NW,9.2,21.9,0.00,Snow,Light Snow,310,2013-02-01 08:11:00
3:47 AM,17.6,8.6,68,30.03,3.0,WNW,13.8,20.7,0.00,Snow,Light Snow,300,2013-02-01 08:47:00
3:55 AM,17.1,7.0,65,30.06,3.0,WNW,16.1,25.3,0.00,Snow,Light Snow,300,2013-02-01 08:55:00
4:03 AM,17.6,8.6,68,30.04,2.5,WNW,10.4,25.3,0.00,Snow,Light Snow,300,2013-02-01 09:03:00
4:16 AM,15.8,8.6,73,30.04,1.2,WNW,15.0,21.9,0.00,Snow,Light Snow,290,2013-02-01 09:16:00
4:30 AM,17.6,8.6,68,30.05,2.5,West,16.1,23.0,0.00,Snow,Light Snow,280,2013-02-01 09:30:00
4:41 AM,15.8,8.6,73,30.05,1.2,WNW,15.0,20.7,0.00,Snow,Light Snow,300,2013-02-01 09:41:00
4:55 AM,16.0,9.0,74,30.09,1.5,NW,9.2,23.0,0.00,Snow,Light Snow,310,2013-02-01 09:55:00
5:08 AM,15.8,10.4,79,30.06,1.0,NW,6.9,-,0.01,Snow,Light Snow,310,2013-02-01 10:08:00
5:10 AM,15.8,10.4,79,30.06,0.8,NW,6.9,-,0.01,Snow,Light Snow,320,2013-02-01 10:10:00
5:14 AM,15.8,10.4,79,30.07,1.0,NW,10.4,-,0.01,Snow,Light Snow,310,2013-02-01 10:14:00
5:24 AM,15.8,10.4,79,30.07,0.8,NW,15.0,20.7,0.01,Snow,Light Snow,310,2013-02-01 10:24:00
5:30 AM,15.8,10.4,79,30.08,1.0,WNW,10.4,20.7,0.01,Snow,Light Snow,300,2013-02-01 10:30:00
5:40 AM,15.8,8.6,73,30.08,1.5,WNW,18.4,25.3,N/A,Snow,Light Snow,290,2013-02-01 10:40:00
5:55 AM,16.0,8.1,71,30.12,3.0,WNW,15.0,23.0,0.01,Snow,Light Snow,290,2013-02-01 10:55:00
5:59 AM,15.8,6.8,68,30.09,3.0,WNW,15.0,-,0.00,Snow,Light Snow,290,2013-02-01 10:59:00
6:02 AM,15.8,8.6,73,30.10,2.0,WNW,12.7,-,0.00,Snow,Light Snow,290,2013-02-01 11:02:00
6:32 AM,15.8,8.6,73,30.11,1.2,WNW,12.7,23.0,0.00,Snow,Light Snow,300,2013-02-01 11:32:00
6:47 AM,15.8,8.6,73,30.12,2.0,West,11.5,-,0.01,Snow,Light Snow,280,2013-02-01 11:47:00
6:49 AM,15.8,8.6,73,30.12,2.0,WNW,16.1,19.6,0.01,Snow,Light Snow,290,2013-02-01 11:49:00
6:55 AM,15.1,8.1,74,30.16,1.0,West,15.0,23.0,0.01,Snow,Light Snow,280,2013-02-01 11:55:00
7:16 AM,15.8,6.8,68,30.13,1.0,WNW,15.0,-,0.00,Snow,Light Snow,290,2013-02-01 12:16:00
7:43 AM,15.8,8.6,73,30.14,1.0,WNW,15.0,-,0.00,Snow,Light Snow,290,2013-02-01 12:43:00
7:50 AM,15.8,6.8,68,30.14,1.0,WNW,16.1,-,0.00,Snow,Light Snow,290,2013-02-01 12:50:00
7:55 AM,15.1,7.0,70,30.19,1.5,WNW,11.5,20.7,0.00,Snow,Light Snow,290,2013-02-01 12:55:00
8:05 AM,15.8,8.6,73,30.15,1.0,WNW,15.0,-,0.00,Snow,Light Snow,290,2013-02-01 13:05:00
8:55 AM,15.1,7.0,70,30.21,1.5,West,13.8,21.9,0.00,Snow,Light Snow,280,2013-02-01 13:55:00
9:03 AM,15.8,6.8,68,30.18,1.5,West,13.8,23.0,0.00,Snow,Light Snow,280,2013-02-01 14:03:00
9:11 AM,14.0,8.6,79,30.18,0.8,WNW,15.0,23.0,0.00,Snow,Light Snow,290,2013-02-01 14:11:00
9:26 AM,15.8,5.0,62,30.19,1.0,WNW,13.8,20.7,0.00,Snow,Light Snow,290,2013-02-01 14:26:00
9:34 AM,14.0,6.8,73,30.19,0.8,WNW,13.8,24.2,0.00,Snow,Light Snow,290,2013-02-01 14:34:00
9:42 AM,14.0,8.6,79,30.19,0.5,West,10.4,19.6,0.00,Snow,Snow,280,2013-02-01 14:42:00
9:55 AM,14.0,7.0,74,30.24,1.0,WNW,9.2,-,0.00,Snow,Light Snow,290,2013-02-01 14:55:00
10:09 AM,15.8,5.0,62,30.20,1.0,West,15.0,19.6,0.00,Snow,Light Snow,270,2013-02-01 15:09:00
10:26 AM,14.0,6.8,73,30.20,1.0,West,12.7,-,0.00,Snow,Light Snow,270,2013-02-01 15:26:00
10:37 AM,14.0,6.8,73,30.21,0.8,WNW,9.2,-,0.00,Snow,Light Snow,290,2013-02-01 15:37:00
10:42 AM,14.0,6.8,73,30.21,1.0,West,12.7,-,0.00,Snow,Light Snow,280,2013-02-01 15:42:00
10:55 AM,14.0,6.1,71,30.26,1.0,West,12.7,-,0.00,Snow,Light Snow,280,2013-02-01 15:55:00
10:59 AM,14.0,6.8,73,30.22,0.8,WNW,11.5,-,0.00,Snow,Light Snow,290,2013-02-01 15:59:00
11:09 AM,15.8,6.8,68,30.22,1.0,West,12.7,17.3,0.00,Snow,Light Snow,270,2013-02-01 16:09:00
11:52 AM,14.0,8.6,79,30.23,0.5,West,10.4,-,0.00,Snow,Snow,260,2013-02-01 16:52:00
11:55 AM,14.0,8.1,77,30.27,0.5,West,10.4,-,0.00,Snow,Snow,270,2013-02-01 16:55:00
12:12 PM,14.0,6.8,73,30.23,0.5,West,11.5,-,0.01,Snow,Light Snow,260,2013-02-01 17:12:00
12:16 PM,14.0,6.8,73,30.23,1.0,West,12.7,-,0.01,Snow,Light Snow,260,2013-02-01 17:16:00
12:40 PM,14.0,6.8,73,30.22,0.5,West,8.1,-,0.01,Snow,Snow,260,2013-02-01 17:40:00
12:47 PM,14.0,6.8,73,30.22,1.0,West,11.5,-,0.01,Snow,Light Snow,260,2013-02-01 17:47:00
12:55 PM,14.0,6.1,71,30.27,1.0,West,11.5,-,0.01,Snow,Light Snow,260,2013-02-01 17:55:00
1:12 PM,14.0,6.8,73,30.22,0.8,West,8.1,-,0.00,Snow,Light Snow,280,2013-02-01 18:12:00
1:20 PM,14.0,6.8,73,30.22,1.0,West,9.2,-,0.00,Snow,Light Snow,260,2013-02-01 18:20:00
1:28 PM,14.0,5.0,67,30.22,1.0,WSW,11.5,-,0.00,Snow,Light Snow,250,2013-02-01 18:28:00
1:55 PM,14.0,6.1,71,30.25,1.0,West,10.4,-,0.00,Snow,Light Snow,260,2013-02-01 18:55:00
1:57 PM,14.0,6.8,73,30.21,0.8,West,10.4,-,0.00,Snow,Light Snow,270,2013-02-01 18:57:00
2:07 PM,14.0,6.8,73,30.21,1.5,WSW,12.7,18.4,0.00,Snow,Light Snow,240,2013-02-01 19:07:00
2:52 PM,14.0,6.8,73,30.21,0.8,WSW,10.4,-,0.00,Snow,Light Snow,250,2013-02-01 19:52:00
2:55 PM,14.0,6.1,71,30.25,1.0,West,12.7,17.3,0.00,Snow,Light Snow,260,2013-02-01 19:55:00
3:55 PM,14.0,5.0,67,30.25,2.0,WSW,10.4,23.0,0.01,Snow,Light Snow,250,2013-02-01 20:55:00
4:19 PM,14.0,6.8,73,30.21,0.8,WSW,13.8,19.6,0.00,Snow,Light Snow,250,2013-02-01 21:19:00
4:30 PM,14.0,6.8,73,30.20,0.5,WSW,13.8,19.6,0.00,Snow,Snow,240,2013-02-01 21:30:00
4:39 PM,14.0,6.8,73,30.21,1.0,WSW,9.2,20.7,0.00,Snow,Light Snow,240,2013-02-01 21:39:00
4:50 PM,14.0,6.8,73,30.20,1.0,WSW,11.5,-,0.00,Snow,Light Snow,250,2013-02-01 21:50:00
4:55 PM,14.0,5.0,67,30.25,1.0,WSW,13.8,-,0.00,Snow,Light Snow,240,2013-02-01 21:55:00
5:00 PM,14.0,6.8,73,30.20,0.8,WSW,13.8,-,0.00,Snow,Light Snow,250,2013-02-01 22:00:00
5:10 PM,14.0,5.0,67,30.20,1.0,WSW,13.8,-,0.00,Snow,Light Snow,240,2013-02-01 22:10:00
5:55 PM,14.0,5.0,67,30.23,1.0,WSW,13.8,-,0.00,Snow,Light Snow,240,2013-02-01 22:55:00
6:36 PM,15.8,6.8,68,30.19,3.0,WSW,17.3,24.2,0.00,Snow,Light Snow,240,2013-02-01 23:36:00
6:55 PM,15.1,7.0,70,30.23,2.0,West,15.0,23.0,0.00,Snow,Light Snow,260,2013-02-01 23:55:00
7:20 PM,15.8,6.8,68,30.18,4.0,WSW,18.4,24.2,0.00,,Haze,250,2013-02-02 00:20:00
7:55 PM,16.0,6.1,65,30.22,10.0,West,12.7,21.9,0.00,,Overcast,260,2013-02-02 00:55:00
8:55 PM,16.0,5.0,62,30.21,10.0,West,13.8,20.7,N/A,,Overcast,260,2013-02-02 01:55:00
9:55 PM,16.0,7.0,68,30.20,8.0,WSW,9.2,21.9,N/A,,Overcast,250,2013-02-02 02:55:00
10:55 PM,17.1,7.0,65,30.19,9.0,WSW,15.0,-,0.00,Snow,Light Snow,250,2013-02-02 03:55:00
11:55 PM,17.1,7.0,65,30.18,8.0,WSW,13.8,25.3,0.00,,Overcast,250,2013-02-02 04:55:00